Location: Fayetteville
(35.0530°N, 78.8790°W)
Time: 23:01:51
(UTC-04:00)

Tiangong 2 - Visible Passes

Search period start: 15 June 2019 00:00
Search period end: 25 June 2019 00:00
Orbit: 376 x 388 km, 42.8° (Epoch: 15 June)

Date Brightness Start Highest point End Pass type
(mag) Time Alt. Az. Time Alt. Az. Time Alt. Az.
22 Jun 3.6 04:36:04 10° SSE 04:37:09 12° SE 04:38:24 10° ESE visible
23 Jun 1.7 05:10:48 14° SW 05:13:18 45° SSE 05:16:21 10° ENE visible
24 Jun 2.8 04:13:17 22° SE 04:13:17 22° SE 04:15:45 10° E visible
